GFSNW_prec_precacc6_210.txt.gz
Total_Precipitation_Accumulation
0.00 0.00 0.00 0.00 0.00 0.00 0.00 0.00 0.00 0.00 0.00 0.00 0.00 0.00 0.00 0.00 0.00 0.00 0.00 0.00 0.00 0.00 0.00 0.00 0.00 0.00 0.00 0.00 0.00 0.00 0.00 0.00 0.00 0.00 0.00 0.00 0.00 0.00 0.00 0.00 0.00 0.00 0.00 0.00
0.00 0.00 0.00 0.00 0.00 0.00 0.00 0.00 0.00 0.00 0.00 0.00 0.00 0.00 0.00 0.00 0.00 0.00 0.00 0.00 0.00 0.00 0.00 0.00 0.00 0.00 0.00 0.00 0.00 0.00 0.00 0.00 0.00 0.00 0.00 0.00 0.00 0.00 0.00 0.00 0.00 0.00 0.00 0.00
0.00 0.00 0.00 0.00 0.00 0.00 0.00 0.00 0.00 0.00 0.00 0.00 0.00 0.00 0.00 0.00 0.00 0.00 0.00 0.00 0.00 0.00 0.00 0.00 0.00 0.00 0.00 0.00 0.00 0.00 0.00 0.00 0.00 0.00 0.00 0.00 0.00 0.00 0.00 0.00 0.00 0.00 0.00 0.00
0.00 0.00 0.00 0.00 0.00 0.00 0.00 0.00 0.00 0.00 0.00 0.00 0.00 0.00 0.00 0.00 0.00 0.00 0.00 0.00 0.00 0.00 0.00 0.00 0.00 0.00 0.00 0.00 0.00 0.00 0.00 0.00 0.00 0.00 0.00 0.00 0.00 0.00 0.00 0.00 0.00 0.00 0.00 0.00
0.00 0.00 0.00 0.00 0.00 0.00 0.00 0.00 0.00 0.00 0.00 0.00 0.00 0.00 0.00 0.00 0.00 0.00 0.00 0.00 0.00 0.00 0.00 0.00 0.00 0.00 0.00 0.00 0.00 0.00 0.00 0.00 0.00 0.00 0.00 0.00 0.00 0.00 0.00 0.00 0.00 0.00 0.00 0.00
0.00 0.00 0.00 0.00 0.00 0.00 0.00 0.00 0.00 0.00 0.00 0.00 0.00 0.00 0.00 0.00 0.00 0.00 0.00 0.00 0.00 0.00 0.00 0.00 0.00 0.00 0.00 0.00 0.00 0.00 0.00 0.00 0.01 0.01 0.00 0.00 0.00 0.00 0.00 0.00 0.00 0.00 0.00 0.00
0.00 0.00 0.00 0.00 0.00 0.00 0.00 0.00 0.00 0.00 0.00 0.00 0.00 0.00 0.00 0.00 0.00 0.00 0.00 0.00 0.00 0.00 0.00 0.00 0.00 0.00 0.00 0.00 0.00 0.00 0.00 0.00 0.02 0.01 0.01 0.02 0.00 0.00 0.00 0.00 0.00 0.00 0.00 0.00
0.00 0.00 0.00 0.00 0.00 0.00 0.00 0.00 0.00 0.01 0.01 0.00 0.00 0.00 0.00 0.00 0.00 0.00 0.00 0.00 0.00 0.00 0.00 0.00 0.00 0.00 0.00 0.00 0.00 0.00 0.00 0.00 0.01 0.03 0.01 0.01 0.00 0.00 0.00 0.00 0.00 0.00 0.00 0.00
0.00 0.00 0.00 0.00 0.01 0.00 0.00 0.00 0.00 0.01 0.03 0.00 0.00 0.00 0.00 0.00 0.01 0.00 0.00 0.00 0.00 0.00 0.00 0.00 0.00 0.00 0.00 0.00 0.00 0.00 0.00 0.00 0.04 0.02 0.02 0.01 0.00 0.00 0.00 0.00 0.00 0.00 0.00 0.00
0.00 0.00 0.00 0.00 0.00 0.01 0.01 0.00 0.00 0.02 0.06 0.01 0.00 0.00 0.00 0.01 0.01 0.03 0.00 0.01 0.02 0.00 0.01 0.02 0.01 0.00 0.00 0.00 0.00 0.00 0.00 0.00 0.04 0.06 0.09 0.04 0.00 0.00 0.00 0.00 0.00 0.00 0.00 0.00
0.00 0.00 0.00 0.00 0.00 0.00 0.02 0.00 0.00 0.02 0.06 0.02 0.00 0.00 0.00 0.00 0.01 0.03 0.02 0.03 0.01 0.02 0.05 0.05 0.03 0.06 0.05 0.06 0.04 0.04 0.05 0.04 0.02 0.04 0.07 0.04 0.00 0.01 0.02 0.02 0.00 0.00 0.00 0.00
0.00 0.00 0.00 0.00 0.01 0.01 0.05 0.02 0.00 0.01 0.03 0.01 0.00 0.00 0.00 0.00 0.00 0.00 0.01 0.02 0.00 0.01 0.02 0.01 0.01 0.01 0.02 0.03 0.04 0.00 0.05 0.08 0.13 0.08 0.06 0.02 0.02 0.08 0.05 0.03 0.02 0.00 0.00 0.00
0.00 0.01 0.02 0.02 0.03 0.04 0.08 0.05 0.00 0.01 0.04 0.04 0.00 0.00 0.00 0.00 0.00 0.00 0.02 0.00 0.00 0.00 0.01 0.05 0.08 0.08 0.02 0.02 0.02 0.01 0.01 0.03 0.12 0.10 0.02 0.01 0.01 0.01 0.02 0.06 0.04 0.01 0.00 0.00
0.03 0.03 0.03 0.04 0.03 0.03 0.05 0.03 0.00 0.02 0.07 0.11 0.01 0.00 0.00 0.00 0.00 0.00 0.00 0.00 0.00 0.00 0.02 0.12 0.19 0.10 0.05 0.03 0.03 0.02 0.01 0.01 0.01 0.03 0.01 0.00 0.01 0.01 0.01 0.01 0.01 0.01 0.00 0.00
0.05 0.04 0.01 0.01 0.01 0.02 0.03 0.00 0.00 0.00 0.03 0.02 0.00 0.01 0.00 0.00 0.00 0.00 0.00 0.00 0.00 0.00 0.03 0.13 0.12 0.02 0.03 0.02 0.04 0.03 0.00 0.00 0.00 0.00 0.00 0.01 0.02 0.00 0.01 0.01 0.00 0.00 0.00 0.00
0.02 0.01 0.00 0.01 0.01 0.02 0.02 0.01 0.00 0.00 0.01 0.13 0.04 0.00 0.00 0.00 0.00 0.00 0.00 0.00 0.00 0.00 0.05 0.07 0.02 0.00 0.04 0.09 0.04 0.00 0.00 0.00 0.00 0.00 0.00 0.00 0.01 0.00 0.00 0.01 0.00 0.01 0.00 0.00
0.02 0.01 0.01 0.00 0.00 0.02 0.02 0.01 0.00 0.01 0.05 0.19 0.22 0.04 0.00 0.00 0.00 0.00 0.00 0.00 0.00 0.01 0.10 0.08 0.03 0.01 0.05 0.16 0.11 0.00 0.00 0.00 0.00 0.00 0.00 0.00 0.00 0.00 0.01 0.02 0.01 0.01 0.01 0.00
0.01 0.00 0.00 0.00 0.00 0.00 0.00 0.00 0.00 0.05 0.19 0.21 0.18 0.01 0.00 0.00 0.00 0.00 0.00 0.00 0.02 0.05 0.04 0.01 0.01 0.03 0.10 0.18 0.02 0.00 0.00 0.00 0.00 0.00 0.00 0.00 0.00 0.00 0.01 0.02 0.02 0.02 0.01 0.01
0.01 0.01 0.00 0.00 0.00 0.00 0.00 0.00 0.00 0.01 0.10 0.09 0.03 0.01 0.01 0.00 0.00 0.00 0.02 0.02 0.06 0.02 0.03 0.02 0.04 0.06 0.09 0.03 0.02 0.01 0.00 0.01 0.00 0.00 0.00 0.00 0.00 0.00 0.00 0.01 0.02 0.01 0.02 0.02
0.03 0.00 0.00 0.00 0.00 0.00 0.00 0.00 0.00 0.00 0.05 0.15 0.10 0.09 0.07 0.02 0.03 0.05 0.06 0.07 0.05 0.03 0.01 0.01 0.06 0.03 0.00 0.01 0.01 0.01 0.00 0.00 0.00 0.00 0.00 0.00 0.00 0.00 0.00 0.00 0.01 0.02 0.02 0.05
0.00 0.00 0.00 0.00 0.00 0.00 0.00 0.00 0.00 0.02 0.05 0.11 0.24 0.11 0.06 0.01 0.02 0.02 0.05 0.04 0.03 0.06 0.00 0.01 0.01 0.03 0.02 0.00 0.00 0.00 0.00 0.00 0.00 0.00 0.00 0.00 0.00 0.00 0.00 0.00 0.00 0.01 0.02 0.04
0.04 0.07 0.05 0.02 0.00 0.00 0.01 0.01 0.03 0.06 0.18 0.13 0.10 0.02 0.01 0.00 0.00 0.06 0.06 0.11 0.05 0.03 0.01 0.07 0.04 0.04 0.00 0.00 0.00 0.00 0.00 0.00 0.00 0.00 0.00 0.00 0.00 0.00 0.00 0.00 0.00 0.00 0.00 0.03
0.02 0.04 0.06 0.01 0.00 0.00 0.00 0.00 0.01 0.02 0.01 0.00 0.01 0.01 0.00 0.00 0.00 0.04 0.06 0.08 0.04 0.10 0.15 0.10 0.06 0.00 0.00 0.00 0.00 0.00 0.00 0.00 0.00 0.00 0.00 0.00 0.00 0.00 0.00 0.00 0.00 0.00 0.01 0.05
0.12 0.09 0.03 0.00 0.00 0.00 0.00 0.01 0.01 0.00 0.00 0.02 0.01 0.00 0.00 0.00 0.01 0.02 0.05 0.06 0.15 0.16 0.10 0.05 0.01 0.00 0.01 0.00 0.00 0.01 0.02 0.02 0.02 0.01 0.00 0.00 0.00 0.00 0.00 0.00 0.00 0.01 0.05 0.15
0.09 0.02 0.00 0.00 0.00 0.00 0.00 0.00 0.00 0.01 0.01 0.01 0.01 0.01 0.02 0.02 0.04 0.07 0.18 0.19 0.15 0.08 0.04 0.03 0.02 0.02 0.04 0.04 0.05 0.07 0.07 0.08 0.11 0.13 0.10 0.06 0.00 0.00 0.01 0.02 0.05 0.09 0.19 0.30
0.00 0.00 0.00 0.00 0.00 0.00 0.01 0.01 0.01 0.00 0.00 0.00 0.02 0.03 0.04 0.07 0.15 0.16 0.11 0.06 0.05 0.04 0.06 0.06 0.05 0.05 0.07 0.10 0.13 0.18 0.17 0.22 0.22 0.34 0.31 0.21 0.08 0.03 0.07 0.15 0.24 0.30 0.25 0.22
0.00 0.00 0.00 0.03 0.09 0.08 0.04 0.01 0.00 0.01 0.03 0.02 0.05 0.07 0.08 0.07 0.07 0.05 0.03 0.06 0.07 0.08 0.08 0.08 0.11 0.15 0.16 0.15 0.19 0.23 0.25 0.26 0.28 0.40 0.42 0.37 0.28 0.18 0.14 0.20 0.20 0.12 0.06 0.03

GFSNW_prec_precacc6_213.txt.gz
Total_Precipitation_Accumulation
0.00 0.00 0.00 0.00 0.00 0.00 0.00 0.00 0.00 0.00 0.00 0.00 0.00 0.00 0.00 0.00 0.00 0.00 0.00 0.00 0.00 0.00 0.00 0.00 0.00 0.00 0.00 0.00 0.00 0.00 0.00 0.00 0.00 0.00 0.00 0.00 0.00 0.00 0.00 0.00 0.00 0.00 0.00 0.00
0.00 0.00 0.00 0.00 0.00 0.00 0.00 0.00 0.00 0.00 0.00 0.00 0.00 0.00 0.00 0.00 0.00 0.00 0.00 0.00 0.00 0.00 0.00 0.00 0.00 0.00 0.00 0.00 0.00 0.00 0.00 0.00 0.00 0.00 0.00 0.00 0.00 0.00 0.00 0.00 0.00 0.00 0.00 0.00
0.00 0.00 0.00 0.00 0.00 0.00 0.00 0.00 0.00 0.00 0.00 0.00 0.00 0.00 0.00 0.00 0.00 0.00 0.00 0.00 0.00 0.00 0.00 0.00 0.00 0.00 0.00 0.00 0.00 0.00 0.00 0.00 0.00 0.00 0.00 0.00 0.00 0.00 0.00 0.00 0.00 0.00 0.00 0.00
0.00 0.00 0.00 0.00 0.00 0.00 0.00 0.00 0.00 0.00 0.00 0.00 0.00 0.00 0.00 0.00 0.00 0.00 0.00 0.00 0.00 0.00 0.00 0.00 0.00 0.00 0.00 0.00 0.00 0.00 0.00 0.00 0.00 0.00 0.00 0.00 0.00 0.00 0.00 0.00 0.00 0.00 0.00 0.00
0.00 0.00 0.00 0.00 0.00 0.00 0.00 0.00 0.00 0.00 0.00 0.00 0.00 0.00 0.00 0.00 0.00 0.00 0.00 0.00 0.00 0.00 0.00 0.00 0.00 0.00 0.00 0.00 0.00 0.00 0.00 0.00 0.00 0.00 0.00 0.00 0.00 0.00 0.00 0.00 0.00 0.00 0.00 0.00
0.00 0.00 0.00 0.00 0.00 0.00 0.00 0.00 0.00 0.00 0.00 0.00 0.00 0.00 0.00 0.00 0.00 0.00 0.00 0.00 0.00 0.00 0.00 0.00 0.00 0.00 0.00 0.00 0.00 0.00 0.00 0.00 0.01 0.01 0.00 0.00 0.00 0.00 0.00 0.00 0.00 0.00 0.00 0.00
0.00 0.01 0.00 0.00 0.00 0.00 0.00 0.00 0.00 0.00 0.00 0.00 0.00 0.00 0.00 0.00 0.00 0.00 0.00 0.00 0.00 0.00 0.00 0.00 0.00 0.00 0.00 0.00 0.00 0.00 0.00 0.00 0.02 0.01 0.01 0.02 0.00 0.00 0.00 0.00 0.00 0.00 0.00 0.00
0.00 0.00 0.01 0.01 0.01 0.00 0.00 0.00 0.00 0.00 0.00 0.00 0.00 0.00 0.00 0.00 0.00 0.00 0.00 0.00 0.00 0.00 0.00 0.00 0.00 0.00 0.00 0.00 0.00 0.00 0.00 0.04 0.03 0.02 0.01 0.01 0.00 0.00 0.00 0.00 0.00 0.00 0.00 0.00
0.00 0.00 0.00 0.01 0.01 0.01 0.00 0.00 0.00 0.01 0.05 0.00 0.00 0.00 0.00 0.00 0.00 0.00 0.00 0.00 0.00 0.00 0.00 0.00 0.00 0.00 0.00 0.00 0.00 0.00 0.00 0.00 0.06 0.02 0.04 0.01 0.00 0.00 0.00 0.00 0.01 0.00 0.00 0.00
0.00 0.00 0.00 0.00 0.00 0.01 0.01 0.00 0.00 0.03 0.09 0.01 0.00 0.00 0.00 0.01 0.00 0.03 0.00 0.00 0.01 0.00 0.00 0.01 0.00 0.00 0.00 0.00 0.00 0.00 0.00 0.00 0.05 0.07 0.14 0.06 0.01 0.01 0.00 0.01 0.04 0.00 0.00 0.00
0.00 0.00 0.00 0.00 0.00 0.01 0.04 0.01 0.00 0.03 0.11 0.03 0.00 0.00 0.00 0.01 0.01 0.03 0.01 0.04 0.00 0.01 0.01 0.01 0.01 0.02 0.01 0.02 0.01 0.01 0.04 0.05 0.02 0.01 0.02 0.02 0.00 0.01 0.04 0.04 0.01 0.00 0.00 0.00
0.00 0.00 0.00 0.02 0.03 0.02 0.07 0.02 0.00 0.02 0.05 0.03 0.00 0.00 0.00 0.00 0.00 0.00 0.02 0.04 0.00 0.00 0.00 0.00 0.00 0.01 0.01 0.01 0.01 0.00 0.00 0.01 0.01 0.04 0.03 0.01 0.02 0.08 0.05 0.03 0.02 0.00 0.00 0.00
0.00 0.01 0.04 0.04 0.05 0.05 0.06 0.03 0.00 0.01 0.03 0.02 0.00 0.00 0.00 0.00 0.00 0.00 0.02 0.01 0.00 0.01 0.01 0.04 0.05 0.06 0.03 0.04 0.02 0.00 0.00 0.00 0.01 0.01 0.00 0.00 0.00 0.01 0.02 0.06 0.05 0.01 0.00 0.00
0.02 0.04 0.05 0.04 0.02 0.01 0.02 0.01 0.00 0.02 0.05 0.06 0.00 0.00 0.00 0.00 0.00 0.00 0.00 0.00 0.00 0.00 0.01 0.12 0.16 0.11 0.04 0.02 0.02 0.01 0.01 0.01 0.01 0.02 0.01 0.00 0.00 0.00 0.01 0.01 0.01 0.01 0.00 0.00
0.03 0.04 0.02 0.01 0.00 0.02 0.04 0.00 0.00 0.00 0.03 0.02 0.00 0.00 0.00 0.00 0.00 0.00 0.00 0.00 0.00 0.00 0.03 0.14 0.10 0.02 0.03 0.02 0.04 0.02 0.00 0.00 0.00 0.01 0.00 0.00 0.00 0.00 0.00 0.00 0.00 0.00 0.00 0.00
0.02 0.02 0.02 0.01 0.01 0.02 0.01 0.01 0.00 0.00 0.01 0.09 0.02 0.00 0.00 0.00 0.00 0.00 0.00 0.00 0.00 0.01 0.08 0.08 0.01 0.00 0.05 0.13 0.03 0.00 0.00 0.00 0.00 0.00 0.00 0.00 0.00 0.00 0.00 0.00 0.00 0.00 0.00 0.00
0.03 0.02 0.01 0.00 0.00 0.02 0.03 0.02 0.00 0.02 0.06 0.27 0.24 0.04 0.00 0.00 0.00 0.00 0.00 0.00 0.00 0.02 0.13 0.09 0.02 0.01 0.15 0.24 0.09 0.00 0.00 0.00 0.01 0.00 0.02 0.04 0.00 0.00 0.00 0.00 0.00 0.00 0.01 0.00
0.02 0.01 0.00 0.00 0.00 0.01 0.00 0.00 0.01 0.04 0.15 0.16 0.11 0.01 0.00 0.00 0.00 0.00 0.00 0.00 0.00 0.03 0.04 0.02 0.02 0.05 0.16 0.18 0.04 0.03 0.02 0.02 0.00 0.00 0.00 0.02 0.00 0.00 0.00 0.00 0.00 0.00 0.00 0.01
0.01 0.01 0.00 0.00 0.00 0.00 0.00 0.00 0.00 0.01 0.07 0.10 0.04 0.02 0.03 0.00 0.00 0.00 0.00 0.01 0.02 0.01 0.04 0.02 0.03 0.05 0.11 0.10 0.07 0.02 0.00 0.03 0.04 0.01 0.00 0.00 0.00 0.00 0.00 0.00 0.00 0.00 0.00 0.00
0.02 0.00 0.00 0.00 0.00 0.00 0.00 0.00 0.00 0.00 0.05 0.14 0.08 0.11 0.06 0.01 0.00 0.00 0.00 0.02 0.02 0.02 0.00 0.01 0.05 0.05 0.05 0.03 0.01 0.01 0.00 0.00 0.01 0.02 0.00 0.00 0.00 0.00 0.00 0.00 0.00 0.00 0.01 0.00
0.00 0.00 0.00 0.00 0.00 0.00 0.00 0.00 0.00 0.00 0.00 0.07 0.23 0.09 0.02 0.00 0.00 0.00 0.00 0.01 0.01 0.05 0.00 0.02 0.05 0.11 0.03 0.00 0.00 0.00 0.00 0.00 0.00 0.00 0.00 0.00 0.00 0.00 0.00 0.00 0.00 0.00 0.00 0.00
0.03 0.05 0.04 0.02 0.01 0.00 0.00 0.00 0.00 0.01 0.05 0.10 0.03 0.00 0.00 0.00 0.00 0.02 0.01 0.05 0.04 0.03 0.06 0.15 0.13 0.06 0.00 0.00 0.00 0.00 0.00 0.00 0.00 0.00 0.00 0.00 0.00 0.00 0.00 0.00 0.00 0.00 0.00 0.00
0.00 0.01 0.05 0.02 0.00 0.00 0.00 0.00 0.00 0.00 0.00 0.00 0.00 0.00 0.00 0.00 0.00 0.01 0.02 0.03 0.03 0.12 0.26 0.18 0.07 0.00 0.00 0.00 0.01 0.01 0.00 0.00 0.01 0.01 0.01 0.00 0.00 0.00 0.00 0.00 0.00 0.00 0.00 0.01
0.03 0.08 0.05 0.01 0.00 0.00 0.00 0.00 0.00 0.00 0.00 0.02 0.01 0.00 0.00 0.00 0.01 0.02 0.05 0.05 0.15 0.13 0.05 0.01 0.00 0.02 0.03 0.02 0.03 0.04 0.04 0.04 0.07 0.10 0.06 0.01 0.00 0.00 0.00 0.00 0.00 0.00 0.00 0.05
0.07 0.03 0.01 0.00 0.00 0.00 0.00 0.00 0.01 0.04 0.05 0.02 0.00 0.00 0.01 0.02 0.04 0.05 0.09 0.11 0.09 0.04 0.03 0.04 0.04 0.05 0.08 0.09 0.09 0.09 0.11 0.13 0.18 0.29 0.15 0.06 0.03 0.02 0.01 0.01 0.01 0.01 0.05 0.14
0.01 0.01 0.00 0.00 0.00 0.00 0.01 0.01 0.02 0.02 0.01 0.00 0.01 0.01 0.04 0.05 0.10 0.10 0.07 0.03 0.03 0.04 0.08 0.09 0.06 0.05 0.11 0.15 0.15 0.14 0.16 0.19 0.24 0.38 0.37 0.26 0.17 0.11 0.06 0.05 0.06 0.10 0.12 0.19
0.00 0.00 0.00 0.01 0.05 0.07 0.04 0.04 0.04 0.03 0.03 0.01 0.03 0.06 0.07 0.06 0.07 0.04 0.02 0.04 0.07 0.08 0.09 0.10 0.11 0.13 0.16 0.16 0.17 0.19 0.18 0.21 0.28 0.34 0.43 0.47 0.41 0.22 0.06 0.12 0.15 0.11 0.08 0.11

GFSNW_prec_precacc6_219.txt.gz
Total_Precipitation_Accumulation
0.00 0.00 0.00 0.00 0.00 0.00 0.00 0.00 0.00 0.00 0.00 0.00 0.00 0.00 0.00 0.00 0.00 0.00 0.00 0.00 0.00 0.00 0.00 0.00 0.00 0.00 0.00 0.00 0.00 0.00 0.00 0.00 0.00 0.00 0.00 0.00 0.00 0.00 0.00 0.00 0.00 0.00 0.00 0.00
0.00 0.00 0.00 0.00 0.00 0.00 0.00 0.00 0.00 0.00 0.00 0.00 0.00 0.00 0.00 0.00 0.00 0.00 0.00 0.00 0.00 0.00 0.00 0.00 0.00 0.00 0.00 0.00 0.00 0.00 0.00 0.00 0.00 0.00 0.00 0.00 0.00 0.00 0.00 0.00 0.00 0.00 0.00 0.00
0.00 0.00 0.00 0.00 0.00 0.00 0.00 0.00 0.00 0.00 0.00 0.00 0.00 0.00 0.00 0.00 0.00 0.00 0.00 0.00 0.00 0.00 0.00 0.00 0.00 0.00 0.00 0.00 0.00 0.00 0.00 0.00 0.00 0.00 0.00 0.00 0.00 0.00 0.00 0.00 0.00 0.00 0.00 0.00
0.00 0.00 0.00 0.00 0.00 0.00 0.00 0.00 0.00 0.00 0.00 0.00 0.00 0.00 0.00 0.00 0.00 0.00 0.00 0.00 0.00 0.00 0.00 0.00 0.00 0.00 0.00 0.00 0.00 0.00 0.00 0.00 0.00 0.00 0.00 0.00 0.00 0.00 0.00 0.00 0.00 0.00 0.00 0.00
0.00 0.00 0.00 0.00 0.00 0.00 0.00 0.00 0.00 0.00 0.00 0.00 0.00 0.00 0.00 0.00 0.00 0.00 0.00 0.00 0.00 0.00 0.00 0.00 0.00 0.00 0.00 0.00 0.00 0.00 0.00 0.00 0.00 0.00 0.00 0.00 0.00 0.00 0.00 0.00 0.00 0.00 0.00 0.00
0.00 0.00 0.00 0.00 0.00 0.00 0.00 0.00 0.00 0.00 0.00 0.00 0.00 0.00 0.00 0.00 0.00 0.00 0.00 0.00 0.00 0.00 0.00 0.00 0.00 0.00 0.00 0.00 0.00 0.00 0.00 0.00 0.00 0.00 0.00 0.00 0.00 0.00 0.00 0.00 0.00 0.00 0.00 0.00
0.00 0.00 0.00 0.00 0.00 0.00 0.00 0.00 0.00 0.00 0.00 0.00 0.00 0.00 0.00 0.00 0.00 0.00 0.00 0.00 0.00 0.00 0.00 0.00 0.00 0.00 0.00 0.00 0.00 0.00 0.00 0.00 0.01 0.00 0.00 0.00 0.00 0.00 0.00 0.00 0.00 0.00 0.00 0.00
0.00 0.00 0.00 0.00 0.01 0.00 0.00 0.00 0.00 0.00 0.00 0.00 0.00 0.00 0.00 0.00 0.00 0.00 0.00 0.00 0.00 0.00 0.00 0.00 0.00 0.00 0.00 0.00 0.00 0.00 0.00 0.03 0.02 0.01 0.00 0.00 0.00 0.00 0.00 0.00 0.00 0.00 0.00 0.00
0.00 0.00 0.00 0.01 0.01 0.01 0.01 0.00 0.00 0.01 0.02 0.00 0.00 0.00 0.00 0.00 0.00 0.00 0.00 0.00 0.00 0.00 0.00 0.00 0.00 0.00 0.00 0.00 0.00 0.00 0.00 0.01 0.03 0.01 0.01 0.00 0.00 0.00 0.00 0.00 0.01 0.00 0.00 0.00
0.00 0.00 0.01 0.00 0.00 0.04 0.05 0.01 0.00 0.05 0.09 0.01 0.00 0.00 0.00 0.00 0.01 0.02 0.00 0.00 0.00 0.00 0.00 0.00 0.00 0.00 0.00 0.00 0.00 0.00 0.00 0.00 0.01 0.01 0.02 0.01 0.00 0.00 0.00 0.00 0.01 0.00 0.00 0.00
0.00 0.01 0.00 0.00 0.02 0.07 0.06 0.01 0.01 0.06 0.10 0.02 0.00 0.00 0.00 0.01 0.01 0.03 0.02 0.04 0.01 0.02 0.02 0.01 0.01 0.00 0.00 0.00 0.00 0.00 0.00 0.01 0.01 0.01 0.01 0.00 0.00 0.00 0.00 0.00 0.00 0.00 0.00 0.00
0.01 0.01 0.00 0.01 0.02 0.05 0.07 0.01 0.01 0.01 0.03 0.01 0.00 0.00 0.00 0.00 0.00 0.01 0.05 0.05 0.01 0.05 0.05 0.03 0.03 0.02 0.02 0.02 0.02 0.00 0.01 0.01 0.00 0.00 0.00 0.00 0.00 0.00 0.00 0.00 0.00 0.00 0.00 0.00
0.02 0.01 0.00 0.02 0.02 0.02 0.06 0.02 0.01 0.02 0.04 0.01 0.00 0.00 0.00 0.00 0.00 0.00 0.03 0.00 0.01 0.02 0.04 0.13 0.11 0.06 0.03 0.03 0.01 0.00 0.00 0.00 0.02 0.02 0.00 0.00 0.00 0.00 0.00 0.00 0.00 0.00 0.00 0.00
0.02 0.01 0.00 0.01 0.01 0.03 0.06 0.02 0.01 0.03 0.05 0.04 0.00 0.00 0.00 0.00 0.00 0.00 0.00 0.00 0.00 0.02 0.06 0.20 0.15 0.07 0.02 0.02 0.01 0.00 0.01 0.01 0.01 0.01 0.00 0.00 0.00 0.00 0.00 0.00 0.00 0.00 0.00 0.00
0.01 0.00 0.00 0.00 0.02 0.04 0.04 0.00 0.00 0.00 0.04 0.03 0.00 0.00 0.00 0.00 0.00 0.00 0.00 0.00 0.00 0.01 0.08 0.11 0.04 0.01 0.04 0.04 0.03 0.02 0.02 0.05 0.07 0.05 0.00 0.01 0.00 0.00 0.00 0.00 0.00 0.00 0.00 0.00
0.00 0.00 0.00 0.00 0.01 0.03 0.02 0.01 0.00 0.00 0.01 0.07 0.03 0.00 0.00 0.00 0.00 0.00 0.00 0.00 0.00 0.01 0.02 0.02 0.01 0.01 0.14 0.13 0.02 0.02 0.06 0.03 0.02 0.03 0.00 0.00 0.00 0.00 0.00 0.00 0.00 0.00 0.00 0.00
0.00 0.00 0.00 0.00 0.00 0.02 0.02 0.02 0.03 0.08 0.12 0.31 0.17 0.02 0.00 0.00 0.00 0.00 0.00 0.00 0.00 0.00 0.01 0.02 0.01 0.02 0.27 0.17 0.10 0.05 0.01 0.00 0.00 0.00 0.02 0.03 0.00 0.00 0.00 0.00 0.00 0.00 0.00 0.00
0.00 0.00 0.00 0.00 0.00 0.00 0.00 0.01 0.03 0.05 0.08 0.06 0.03 0.00 0.00 0.00 0.01 0.00 0.00 0.00 0.00 0.00 0.01 0.02 0.03 0.12 0.24 0.22 0.07 0.01 0.00 0.00 0.00 0.00 0.00 0.01 0.01 0.00 0.00 0.00 0.01 0.02 0.00 0.00
0.00 0.00 0.00 0.00 0.00 0.00 0.00 0.00 0.00 0.01 0.06 0.07 0.04 0.02 0.03 0.03 0.01 0.00 0.00 0.00 0.00 0.00 0.02 0.02 0.08 0.15 0.15 0.11 0.03 0.00 0.00 0.00 0.01 0.00 0.00 0.00 0.00 0.00 0.00 0.00 0.01 0.02 0.00 0.00
0.00 0.00 0.00 0.00 0.00 0.00 0.00 0.00 0.00 0.00 0.06 0.10 0.04 0.04 0.12 0.04 0.00 0.00 0.00 0.00 0.00 0.01 0.01 0.09 0.17 0.11 0.06 0.00 0.00 0.01 0.02 0.02 0.02 0.06 0.04 0.02 0.01 0.00 0.00 0.00 0.00 0.00 0.00 0.00
0.00 0.00 0.00 0.00 0.00 0.00 0.00 0.00 0.00 0.00 0.00 0.01 0.03 0.10 0.03 0.00 0.00 0.00 0.00 0.01 0.01 0.04 0.05 0.26 0.18 0.04 0.00 0.00 0.00 0.01 0.02 0.02 0.02 0.05 0.06 0.04 0.05 0.05 0.03 0.01 0.00 0.00 0.00 0.00
0.01 0.00 0.01 0.00 0.00 0.00 0.00 0.00 0.00 0.00 0.00 0.01 0.01 0.01 0.00 0.00 0.00 0.00 0.01 0.03 0.04 0.09 0.11 0.15 0.03 0.00 0.00 0.01 0.02 0.03 0.04 0.06 0.08 0.08 0.16 0.14 0.09 0.04 0.01 0.00 0.00 0.00 0.00 0.03
0.00 0.00 0.00 0.00 0.00 0.00 0.00 0.00 0.00 0.00 0.01 0.02 0.02 0.01 0.00 0.00 0.00 0.00 0.02 0.04 0.07 0.07 0.02 0.01 0.01 0.00 0.01 0.04 0.05 0.04 0.01 0.04 0.09 0.13 0.16 0.12 0.05 0.02 0.02 0.02 0.04 0.07 0.09 0.05
0.00 0.00 0.00 0.00 0.00 0.00 0.00 0.00 0.00 0.01 0.05 0.08 0.03 0.01 0.00 0.00 0.00 0.01 0.04 0.04 0.08 0.02 0.00 0.01 0.01 0.05 0.05 0.04 0.04 0.05 0.04 0.07 0.13 0.22 0.19 0.11 0.11 0.09 0.09 0.11 0.12 0.10 0.06 0.05
0.00 0.01 0.00 0.00 0.00 0.00 0.00 0.01 0.03 0.05 0.06 0.04 0.02 0.01 0.01 0.01 0.02 0.04 0.06 0.06 0.03 0.01 0.03 0.03 0.06 0.08 0.08 0.06 0.08 0.10 0.10 0.12 0.15 0.20 0.18 0.17 0.17 0.14 0.13 0.15 0.11 0.06 0.05 0.11
0.02 0.01 0.00 0.00 0.00 0.00 0.00 0.01 0.02 0.03 0.01 0.00 0.01 0.01 0.01 0.02 0.05 0.07 0.04 0.02 0.02 0.02 0.04 0.05 0.04 0.04 0.04 0.03 0.06 0.10 0.12 0.14 0.15 0.18 0.18 0.17 0.18 0.21 0.20 0.12 0.10 0.08 0.09 0.16
0.01 0.00 0.00 0.00 0.00 0.01 0.03 0.03 0.05 0.02 0.01 0.00 0.01 0.02 0.02 0.03 0.05 0.02 0.02 0.02 0.02 0.03 0.03 0.06 0.05 0.05 0.02 0.01 0.01 0.02 0.04 0.08 0.11 0.11 0.13 0.16 0.15 0.09 0.06 0.11 0.13 0.13 0.16 0.18

GFSNW_prec_precacc6_222.txt.gz
Total_Precipitation_Accumulation
0.00 0.00 0.00 0.00 0.00 0.00 0.00 0.00 0.00 0.00 0.00 0.00 0.00 0.00 0.00 0.00 0.00 0.00 0.00 0.00 0.00 0.00 0.00 0.00 0.00 0.00 0.00 0.00 0.00 0.00 0.00 0.00 0.00 0.00 0.00 0.00 0.00 0.00 0.00 0.00 0.00 0.00 0.00 0.00
0.00 0.00 0.00 0.00 0.00 0.00 0.00 0.00 0.00 0.00 0.00 0.00 0.00 0.00 0.00 0.00 0.00 0.00 0.00 0.00 0.00 0.00 0.00 0.00 0.00 0.00 0.00 0.00 0.00 0.00 0.00 0.00 0.00 0.00 0.00 0.00 0.00 0.00 0.00 0.00 0.00 0.00 0.00 0.00
0.00 0.00 0.00 0.00 0.00 0.00 0.00 0.00 0.00 0.00 0.00 0.00 0.00 0.00 0.00 0.00 0.00 0.00 0.00 0.00 0.00 0.00 0.00 0.00 0.00 0.00 0.00 0.00 0.00 0.00 0.00 0.00 0.00 0.00 0.00 0.00 0.00 0.00 0.00 0.00 0.00 0.00 0.00 0.00
0.00 0.00 0.00 0.00 0.00 0.00 0.00 0.00 0.00 0.00 0.00 0.00 0.00 0.00 0.00 0.00 0.00 0.00 0.00 0.00 0.00 0.00 0.00 0.00 0.00 0.00 0.00 0.00 0.00 0.00 0.00 0.00 0.00 0.00 0.00 0.00 0.00 0.00 0.00 0.00 0.00 0.00 0.00 0.00
0.00 0.00 0.00 0.00 0.00 0.00 0.00 0.00 0.00 0.00 0.00 0.00 0.00 0.00 0.00 0.00 0.00 0.00 0.00 0.00 0.00 0.00 0.00 0.00 0.00 0.00 0.00 0.00 0.00 0.00 0.00 0.00 0.00 0.00 0.00 0.00 0.00 0.00 0.00 0.00 0.00 0.00 0.00 0.00
0.00 0.00 0.00 0.00 0.00 0.00 0.00 0.00 0.00 0.00 0.00 0.00 0.00 0.00 0.00 0.00 0.00 0.00 0.00 0.00 0.00 0.00 0.00 0.00 0.00 0.00 0.00 0.00 0.00 0.00 0.00 0.00 0.00 0.00 0.00 0.00 0.00 0.00 0.00 0.00 0.00 0.00 0.00 0.00
0.00 0.00 0.00 0.00 0.00 0.00 0.00 0.00 0.00 0.00 0.00 0.00 0.00 0.00 0.00 0.00 0.00 0.00 0.00 0.00 0.00 0.00 0.00 0.00 0.00 0.00 0.00 0.00 0.00 0.00 0.00 0.00 0.01 0.01 0.00 0.00 0.00 0.00 0.00 0.00 0.00 0.00 0.00 0.00
0.00 0.00 0.00 0.00 0.00 0.00 0.00 0.00 0.00 0.00 0.00 0.00 0.00 0.00 0.00 0.00 0.00 0.00 0.00 0.00 0.00 0.00 0.00 0.00 0.00 0.00 0.00 0.00 0.00 0.00 0.00 0.01 0.02 0.01 0.00 0.00 0.00 0.00 0.00 0.00 0.00 0.00 0.00 0.00
0.00 0.00 0.00 0.00 0.00 0.02 0.01 0.00 0.00 0.01 0.02 0.00 0.00 0.00 0.00 0.00 0.00 0.00 0.00 0.00 0.00 0.00 0.00 0.00 0.00 0.00 0.00 0.00 0.00 0.00 0.00 0.01 0.03 0.01 0.01 0.00 0.00 0.00 0.00 0.00 0.00 0.00 0.00 0.00
0.00 0.00 0.00 0.00 0.00 0.04 0.04 0.02 0.02 0.04 0.07 0.01 0.00 0.00 0.00 0.01 0.01 0.01 0.00 0.00 0.00 0.00 0.00 0.00 0.00 0.00 0.00 0.00 0.00 0.00 0.01 0.02 0.03 0.02 0.01 0.00 0.00 0.00 0.00 0.00 0.00 0.00 0.00 0.00
0.00 0.01 0.01 0.00 0.01 0.03 0.03 0.03 0.03 0.04 0.05 0.01 0.00 0.00 0.00 0.01 0.01 0.03 0.02 0.02 0.01 0.02 0.03 0.01 0.01 0.00 0.00 0.00 0.00 0.00 0.00 0.01 0.00 0.00 0.00 0.00 0.00 0.00 0.00 0.00 0.00 0.00 0.00 0.00
0.01 0.01 0.01 0.00 0.00 0.03 0.05 0.02 0.03 0.04 0.05 0.01 0.00 0.00 0.00 0.00 0.00 0.02 0.04 0.02 0.01 0.04 0.05 0.03 0.05 0.03 0.02 0.02 0.01 0.00 0.01 0.01 0.01 0.01 0.00 0.00 0.00 0.00 0.00 0.00 0.00 0.00 0.00 0.00
0.02 0.01 0.01 0.00 0.00 0.01 0.06 0.04 0.03 0.05 0.03 0.00 0.00 0.00 0.00 0.00 0.00 0.01 0.03 0.00 0.01 0.02 0.07 0.15 0.12 0.04 0.03 0.03 0.01 0.01 0.00 0.01 0.03 0.03 0.00 0.00 0.00 0.00 0.00 0.00 0.00 0.00 0.00 0.00
0.01 0.00 0.00 0.00 0.00 0.02 0.07 0.04 0.03 0.06 0.04 0.04 0.00 0.00 0.00 0.00 0.00 0.00 0.00 0.00 0.00 0.03 0.06 0.13 0.11 0.04 0.01 0.01 0.01 0.01 0.01 0.03 0.04 0.02 0.00 0.00 0.00 0.00 0.00 0.00 0.00 0.00 0.00 0.00
0.01 0.00 0.00 0.00 0.01 0.02 0.04 0.00 0.00 0.01 0.07 0.05 0.00 0.00 0.00 0.00 0.00 0.00 0.00 0.00 0.00 0.01 0.04 0.06 0.02 0.01 0.04 0.04 0.03 0.07 0.09 0.13 0.12 0.07 0.00 0.01 0.00 0.00 0.00 0.00 0.00 0.00 0.00 0.00
0.00 0.00 0.00 0.00 0.00 0.03 0.03 0.00 0.00 0.00 0.05 0.09 0.04 0.00 0.00 0.00 0.00 0.00 0.00 0.00 0.00 0.00 0.01 0.02 0.01 0.00 0.15 0.15 0.04 0.10 0.09 0.02 0.01 0.01 0.00 0.00 0.00 0.00 0.00 0.00 0.00 0.00 0.00 0.00
0.00 0.00 0.00 0.00 0.00 0.02 0.02 0.01 0.06 0.08 0.09 0.17 0.11 0.00 0.00 0.00 0.00 0.00 0.00 0.00 0.00 0.00 0.01 0.02 0.01 0.01 0.23 0.18 0.12 0.04 0.00 0.00 0.00 0.00 0.00 0.01 0.00 0.00 0.00 0.00 0.00 0.00 0.00 0.00
0.00 0.00 0.00 0.00 0.00 0.00 0.00 0.00 0.02 0.02 0.05 0.06 0.04 0.01 0.02 0.01 0.02 0.00 0.00 0.00 0.00 0.00 0.01 0.03 0.05 0.15 0.18 0.13 0.02 0.00 0.00 0.00 0.00 0.00 0.00 0.00 0.00 0.00 0.00 0.00 0.00 0.01 0.00 0.00
0.00 0.00 0.00 0.00 0.00 0.00 0.00 0.00 0.00 0.01 0.05 0.04 0.05 0.05 0.05 0.04 0.01 0.00 0.00 0.00 0.00 0.01 0.03 0.06 0.15 0.12 0.05 0.05 0.03 0.02 0.02 0.04 0.04 0.01 0.00 0.00 0.00 0.00 0.00 0.00 0.00 0.00 0.00 0.00
0.00 0.00 0.00 0.00 0.00 0.00 0.00 0.00 0.00 0.00 0.03 0.06 0.04 0.06 0.08 0.03 0.00 0.00 0.00 0.01 0.01 0.01 0.02 0.23 0.15 0.04 0.01 0.00 0.00 0.03 0.05 0.06 0.05 0.11 0.09 0.07 0.06 0.02 0.02 0.02 0.02 0.01 0.00 0.00
0.00 0.00 0.00 0.00 0.00 0.00 0.00 0.00 0.00 0.00 0.00 0.01 0.01 0.03 0.01 0.00 0.00 0.00 0.01 0.01 0.02 0.05 0.06 0.26 0.06 0.00 0.00 0.00 0.00 0.01 0.03 0.04 0.04 0.10 0.12 0.12 0.16 0.14 0.09 0.04 0.02 0.00 0.00 0.00
0.01 0.01 0.01 0.00 0.00 0.00 0.00 0.00 0.00 0.00 0.00 0.01 0.01 0.02 0.00 0.00 0.00 0.01 0.01 0.04 0.04 0.12 0.04 0.03 0.00 0.00 0.00 0.00 0.01 0.01 0.05 0.09 0.10 0.13 0.20 0.20 0.18 0.12 0.07 0.05 0.04 0.04 0.04 0.06
0.00 0.00 0.00 0.00 0.00 0.00 0.00 0.00 0.00 0.00 0.02 0.04 0.06 0.02 0.01 0.00 0.00 0.00 0.01 0.03 0.07 0.05 0.00 0.01 0.02 0.00 0.00 0.02 0.03 0.02 0.02 0.05 0.08 0.12 0.16 0.15 0.11 0.07 0.07 0.07 0.09 0.11 0.12 0.12
0.00 0.00 0.00 0.00 0.00 0.00 0.00 0.00 0.00 0.02 0.04 0.08 0.03 0.02 0.02 0.02 0.00 0.01 0.02 0.02 0.05 0.01 0.00 0.01 0.00 0.02 0.02 0.02 0.02 0.03 0.04 0.05 0.08 0.12 0.12 0.11 0.12 0.10 0.07 0.10 0.11 0.10 0.10 0.11
0.00 0.00 0.00 0.00 0.00 0.00 0.00 0.00 0.02 0.03 0.04 0.03 0.01 0.02 0.01 0.01 0.01 0.02 0.03 0.04 0.01 0.01 0.01 0.02 0.03 0.04 0.05 0.02 0.02 0.05 0.06 0.08 0.10 0.10 0.11 0.11 0.10 0.08 0.10 0.12 0.10 0.08 0.08 0.11
0.01 0.00 0.00 0.00 0.00 0.00 0.00 0.01 0.02 0.02 0.01 0.00 0.01 0.01 0.01 0.01 0.03 0.04 0.02 0.01 0.01 0.02 0.02 0.03 0.02 0.03 0.03 0.01 0.01 0.03 0.05 0.07 0.09 0.10 0.10 0.09 0.13 0.16 0.12 0.06 0.09 0.11 0.11 0.15
0.00 0.00 0.00 0.00 0.00 0.00 0.02 0.01 0.02 0.01 0.00 0.00 0.01 0.01 0.01 0.01 0.03 0.01 0.00 0.01 0.01 0.01 0.02 0.04 0.04 0.04 0.01 0.00 0.00 0.00 0.00 0.01 0.04 0.05 0.06 0.09 0.07 0.02 0.02 0.09 0.14 0.14 0.16 0.16

GFSNW_prec_precacc6_225.txt.gz
Total_Precipitation_Accumulation
0.00 0.00 0.00 0.00 0.00 0.00 0.00 0.00 0.00 0.00 0.00 0.00 0.00 0.00 0.00 0.00 0.00 0.00 0.00 0.00 0.00 0.00 0.00 0.00 0.00 0.00 0.00 0.00 0.00 0.00 0.00 0.00 0.00 0.00 0.00 0.00 0.00 0.00 0.00 0.01 0.01 0.00 0.00 0.01
0.00 0.00 0.00 0.00 0.00 0.00 0.00 0.00 0.00 0.00 0.00 0.00 0.00 0.00 0.00 0.00 0.00 0.00 0.00 0.00 0.00 0.00 0.00 0.00 0.00 0.00 0.00 0.00 0.00 0.00 0.00 0.00 0.00 0.00 0.00 0.00 0.00 0.00 0.00 0.00 0.00 0.00 0.00 0.01
0.00 0.00 0.00 0.00 0.00 0.00 0.00 0.00 0.00 0.00 0.00 0.00 0.00 0.00 0.00 0.00 0.00 0.00 0.00 0.00 0.00 0.00 0.00 0.00 0.00 0.00 0.00 0.00 0.00 0.00 0.00 0.00 0.00 0.00 0.00 0.00 0.00 0.00 0.00 0.01 0.01 0.00 0.00 0.00
0.00 0.00 0.00 0.00 0.00 0.00 0.00 0.00 0.00 0.00 0.00 0.00 0.00 0.00 0.00 0.00 0.00 0.00 0.00 0.00 0.00 0.00 0.00 0.00 0.00 0.00 0.00 0.00 0.00 0.00 0.00 0.00 0.00 0.00 0.00 0.00 0.00 0.00 0.00 0.00 0.00 0.00 0.00 0.00
0.00 0.00 0.00 0.00 0.00 0.00 0.00 0.00 0.00 0.00 0.00 0.00 0.00 0.00 0.00 0.00 0.00 0.00 0.00 0.00 0.00 0.00 0.00 0.00 0.00 0.00 0.00 0.00 0.00 0.00 0.00 0.00 0.00 0.00 0.00 0.00 0.00 0.00 0.00 0.00 0.00 0.00 0.00 0.00
0.00 0.00 0.00 0.00 0.00 0.00 0.00 0.00 0.00 0.00 0.00 0.00 0.00 0.00 0.00 0.00 0.00 0.00 0.00 0.00 0.00 0.00 0.00 0.00 0.00 0.00 0.00 0.00 0.00 0.00 0.00 0.00 0.00 0.00 0.00 0.00 0.00 0.00 0.00 0.00 0.00 0.00 0.01 0.01
0.00 0.00 0.00 0.00 0.00 0.00 0.00 0.00 0.00 0.00 0.00 0.00 0.00 0.00 0.00 0.00 0.00 0.00 0.00 0.00 0.00 0.00 0.00 0.00 0.00 0.00 0.00 0.00 0.00 0.00 0.00 0.00 0.00 0.01 0.00 0.00 0.00 0.00 0.00 0.00 0.00 0.00 0.00 0.00
0.00 0.00 0.00 0.00 0.00 0.01 0.00 0.00 0.00 0.00 0.00 0.00 0.00 0.00 0.00 0.00 0.00 0.00 0.00 0.00 0.00 0.00 0.00 0.00 0.00 0.00 0.00 0.00 0.00 0.00 0.00 0.00 0.01 0.01 0.00 0.00 0.00 0.00 0.00 0.00 0.00 0.00 0.00 0.00
0.00 0.00 0.00 0.00 0.00 0.02 0.01 0.00 0.00 0.01 0.03 0.00 0.00 0.00 0.00 0.00 0.00 0.00 0.00 0.00 0.00 0.00 0.00 0.00 0.00 0.00 0.00 0.00 0.00 0.00 0.01 0.02 0.06 0.06 0.05 0.02 0.00 0.00 0.00 0.00 0.00 0.00 0.00 0.00
0.00 0.00 0.00 0.00 0.00 0.01 0.01 0.01 0.03 0.02 0.05 0.00 0.00 0.00 0.00 0.00 0.01 0.02 0.00 0.00 0.00 0.00 0.00 0.01 0.00 0.00 0.00 0.00 0.00 0.00 0.01 0.02 0.04 0.04 0.05 0.03 0.00 0.00 0.00 0.00 0.00 0.00 0.00 0.00
0.00 0.00 0.01 0.00 0.01 0.00 0.01 0.01 0.03 0.04 0.07 0.01 0.00 0.00 0.00 0.00 0.01 0.01 0.01 0.01 0.00 0.01 0.02 0.02 0.01 0.01 0.01 0.00 0.00 0.00 0.00 0.01 0.00 0.00 0.00 0.00 0.00 0.00 0.00 0.00 0.00 0.00 0.00 0.00
0.00 0.01 0.01 0.01 0.00 0.00 0.02 0.01 0.02 0.05 0.05 0.01 0.00 0.00 0.00 0.00 0.00 0.03 0.03 0.01 0.01 0.03 0.05 0.04 0.07 0.04 0.02 0.01 0.01 0.00 0.00 0.01 0.03 0.04 0.01 0.00 0.00 0.00 0.00 0.00 0.00 0.00 0.00 0.00
0.00 0.00 0.01 0.01 0.00 0.01 0.04 0.02 0.03 0.05 0.02 0.00 0.00 0.00 0.00 0.00 0.00 0.03 0.02 0.00 0.03 0.03 0.09 0.12 0.13 0.05 0.02 0.01 0.01 0.01 0.01 0.02 0.05 0.04 0.00 0.00 0.00 0.00 0.00 0.00 0.00 0.00 0.00 0.00
0.00 0.00 0.00 0.00 0.01 0.02 0.03 0.02 0.02 0.05 0.03 0.04 0.00 0.00 0.00 0.00 0.00 0.00 0.01 0.00 0.02 0.02 0.04 0.08 0.06 0.03 0.01 0.01 0.01 0.04 0.09 0.05 0.06 0.02 0.00 0.00 0.00 0.00 0.00 0.00 0.00 0.00 0.00 0.00
0.00 0.00 0.00 0.00 0.01 0.01 0.01 0.00 0.00 0.03 0.09 0.05 0.00 0.00 0.00 0.00 0.00 0.00 0.01 0.00 0.02 0.01 0.03 0.03 0.01 0.00 0.03 0.02 0.03 0.16 0.13 0.13 0.10 0.06 0.00 0.01 0.00 0.00 0.00 0.00 0.00 0.00 0.00 0.00
0.00 0.00 0.00 0.00 0.00 0.01 0.01 0.00 0.00 0.00 0.05 0.07 0.03 0.00 0.00 0.01 0.00 0.00 0.01 0.00 0.00 0.01 0.00 0.01 0.01 0.00 0.16 0.15 0.08 0.14 0.04 0.01 0.01 0.01 0.00 0.00 0.00 0.00 0.00 0.00 0.00 0.00 0.00 0.00
0.00 0.00 0.00 0.00 0.00 0.01 0.01 0.01 0.05 0.04 0.04 0.05 0.04 0.00 0.02 0.01 0.00 0.00 0.00 0.00 0.00 0.00 0.00 0.00 0.00 0.02 0.21 0.20 0.08 0.02 0.00 0.00 0.00 0.00 0.02 0.03 0.00 0.00 0.00 0.00 0.00 0.00 0.00 0.00
0.00 0.00 0.00 0.00 0.00 0.00 0.00 0.00 0.00 0.01 0.02 0.03 0.02 0.01 0.03 0.01 0.01 0.00 0.00 0.00 0.00 0.00 0.00 0.03 0.11 0.12 0.07 0.04 0.00 0.00 0.00 0.00 0.00 0.00 0.01 0.02 0.02 0.01 0.01 0.01 0.01 0.01 0.01 0.00
0.00 0.00 0.00 0.00 0.00 0.00 0.00 0.00 0.00 0.00 0.01 0.01 0.03 0.05 0.04 0.02 0.00 0.00 0.00 0.00 0.00 0.01 0.04 0.15 0.12 0.03 0.04 0.07 0.06 0.04 0.04 0.07 0.06 0.01 0.00 0.00 0.01 0.02 0.03 0.03 0.03 0.04 0.02 0.00
0.00 0.00 0.00 0.00 0.00 0.00 0.00 0.00 0.00 0.00 0.00 0.01 0.02 0.05 0.03 0.01 0.00 0.00 0.00 0.01 0.00 0.01 0.05 0.31 0.04 0.03 0.03 0.01 0.03 0.06 0.06 0.07 0.07 0.11 0.12 0.12 0.10 0.06 0.06 0.08 0.07 0.05 0.03 0.01
0.00 0.00 0.00 0.00 0.00 0.00 0.00 0.00 0.00 0.00 0.00 0.01 0.01 0.02 0.01 0.00 0.00 0.00 0.01 0.01 0.01 0.03 0.07 0.12 0.01 0.01 0.01 0.00 0.00 0.00 0.03 0.05 0.07 0.12 0.13 0.15 0.19 0.16 0.12 0.07 0.05 0.04 0.05 0.06
0.00 0.01 0.00 0.00 0.00 0.00 0.00 0.00 0.00 0.00 0.00 0.01 0.01 0.01 0.01 0.01 0.00 0.01 0.01 0.02 0.02 0.11 0.01 0.00 0.01 0.02 0.01 0.00 0.00 0.00 0.04 0.07 0.08 0.10 0.14 0.15 0.15 0.14 0.10 0.09 0.09 0.10 0.09 0.09
0.00 0.00 0.00 0.00 0.00 0.00 0.00 0.00 0.00 0.00 0.02 0.03 0.06 0.02 0.01 0.01 0.01 0.00 0.01 0.01 0.05 0.02 0.00 0.01 0.03 0.01 0.00 0.01 0.01 0.00 0.01 0.02 0.03 0.05 0.08 0.10 0.09 0.07 0.08 0.08 0.09 0.09 0.08 0.12
0.00 0.00 0.00 0.00 0.00 0.00 0.00 0.00 0.00 0.01 0.04 0.05 0.02 0.01 0.02 0.02 0.00 0.00 0.01 0.01 0.03 0.00 0.00 0.01 0.01 0.02 0.01 0.01 0.00 0.00 0.01 0.02 0.03 0.04 0.05 0.06 0.06 0.06 0.06 0.09 0.09 0.07 0.11 0.12
0.00 0.00 0.00 0.00 0.00 0.00 0.00 0.00 0.00 0.01 0.02 0.01 0.00 0.01 0.00 0.01 0.00 0.00 0.01 0.02 0.01 0.01 0.01 0.01 0.03 0.03 0.02 0.01 0.00 0.00 0.01 0.03 0.05 0.05 0.06 0.05 0.03 0.04 0.08 0.09 0.07 0.08 0.10 0.10
0.00 0.00 0.00 0.00 0.00 0.00 0.00 0.00 0.00 0.01 0.00 0.00 0.00 0.00 0.00 0.01 0.02 0.03 0.01 0.01 0.01 0.02 0.02 0.03 0.02 0.01 0.00 0.00 0.00 0.01 0.01 0.02 0.03 0.05 0.06 0.04 0.08 0.14 0.11 0.04 0.07 0.10 0.11 0.13
0.00 0.00 0.00 0.00 0.00 0.00 0.01 0.00 0.00 0.00 0.00 0.00 0.00 0.00 0.00 0.00 0.01 0.01 0.00 0.01 0.02 0.01 0.02 0.03 0.03 0.01 0.00 0.00 0.00 0.00 0.00 0.00 0.00 0.01 0.02 0.05 0.06 0.02 0.02 0.06 0.11 0.12 0.14 0.15